COSMOS 2251 DEB, 33785

Orbit data source: Space-Track

COSMOS 2251 DEB, 33785 is space debris in LEO originally from a launch on Wed, 16 Jun 1993 UTC launched from the Plesetsk Missile And Space Complex (PKMTR). The debris from Iridium 33, an American commercial communications satellite, has been tracked extensively since its accidental collision with the defunct Russian satellite Cosmos 2251 in 2009. This event, occurring at high speed in low Earth orbit (LEO), generated thousands of pieces of space debris, significantly increasing the risk of further collisions. The Iridium 33 debris cloud has impacted space traffic management and orbital debris mitigation strategies, making it a subject of ongoing study in space situational awareness.

Loading next visibility...
COSMOS 2251 DEB details
Identifier
33785, 1993-036AA
Orbit
LEO
Last TLE update21 hours ago
Origin
Flag of CISKVR (CIS)
ManufacturerUnknown
MissionSpacecraft
Bus & MotorUnknown
MassUnknown
Launch date (UTC)
1993-06-16 (32 years ago)
Launch vehicleUnknown
Launch site
Plesetsk Missile And Space Complex (PKMTR)
Object type
Payload
Rocket body
Debris
Shape & HBRUnknown
Radar Cross SectionSmall (<0.1 m²)

Expand to show TLE details & history

TLE from 21 hours ago
0 COSMOS 2251 DEB
1 33785U 93036AA  24360.52864280  .00014335  00000-0  29164-2 0  9997
2 33785  73.8737  25.7680 0024058  31.0177 120.7600 14.60906511833440
Epoch: 2024-12-25T12:41Z
Definitive object data (Epoch: 2024-12-25T12:41:14.737Z)
Latitude26.83898°
Longitude-87.43144°
Altitude701.952 km
Speed7.503 km/s
True Right ascension13h 09m 36s
True Declination26° 41' 59"
Sunlit
Object was in daylight at TLE epoch
Visualization TLE readout
Latitude9.75296°
Longitude-83.62166°
Altitude705.199 km
Speed7.497 km/s
Apparent Right ascension16h 18m 01s
Apparent Declination-25° 11' 40"
Sunlit
Object is in daylight
Visualization observer readout
Local Sidereal Time09:29:10
Azimuth102.968° ESE
Elevation-24.834°
Doppler factor1
Orbital elements
Apogee altitude704.858 km
Perigee altitude670.86 km
Semi-major axis7,065.996 km
Eccentricity0.0024058
Inclination73.8737°
RAAN25.768°
Arg. of periapsis31.0177°
True anomaly120.99654°
Mean anomaly120.76°
Eccentric anomaly120.8783°
Mean motion3.65412 °/min
BSTAR0.0029164
Orbital period98.52 mins
Loading maneuver chart data...

COSMOS 2251 DEB Visibility forecast

Observer location: undefined°, undefined

Span
Click to sort rows by Start time (UTC) header in descending order
Start Az.
Max El. time (UTC)
Max El. Az.
Max El.
End time (UTC)
End Az.
8 mins2024-12-26 13:13:02.260Z341.779° N2024-12-26 13:16:02.260Z347.945° N43.639°2024-12-26 13:21:02.260Z161.44° S
5 mins2024-12-27 01:56:02.260Z133.005° SE2024-12-27 01:58:02.260Z103.14° ESE18.479°2024-12-27 02:01:02.260Z58.549° ENE
7 mins2024-12-27 03:35:02.260Z231.069° WSW2024-12-27 03:38:02.260Z282.721° WNW31.933°2024-12-27 03:42:02.260Z359.679° N
|